Anchorage, AK

4:35 AM AKST on February 24, 2017 (GMT -0900)
Ted Stevens Anchorage Int'l Airport

Weather History for PANC - October, 2013

Change the Weather History Date:

Thursday, October 3, 2013

  Actual Average Record
Temperature  
Mean Temperature 45 °F 42 °F  
Max Temperature 49 °F 48 °F 56 °F (2004)
Min Temperature 41 °F 36 °F 19 °F (1972)
Degree Days  
Heating Degree Days 20    
Month to date heating degree days 63  
Since 1 July heating degree days 911  
Cooling Degree Days 0    
Month to date cooling degree days 0  
Year to date cooling degree days 21  
Moisture  
Dew Point 38 °F    
Average Humidity 75    
Maximum Humidity 89    
Minimum Humidity 61    
Precipitation  
Precipitation T in 0.09 in 1.32 in (2003)
Month to date precipitation 0.19 0.27  
Year to date precipitation 19.40 12.55  
Snow  
Snow 0.00 in 0.10 in 0.80 in (1958)
Month to date snowfall 0.0 0.4  
Since 1 July snowfall T 0.8  
Since 1 September snowfall T 0.8  
Snow Depth 0.00 in    
Sea Level Pressure  
Sea Level Pressure 29.59 in    
Wind  
Wind Speed 7 mph (North)    
Max Wind Speed 13 mph    
Max Gust Speed 17 mph    
Visibility 10 miles    
Events      
T = Trace of Precipitation, MM = Missing Value Source: NWS Daily Summary

Daily Weather History Graph

Daily Weather History Graph

Search for Another Location

Airport or City:

Trip Planner

Search our weather history database for the weather conditions in past years. The results will help you decide how hot, cold, wet, or windy it might be!

Date:

Astronomy

Oct. 03, 2013 Rise Set
Actual Time 8:12 AM AKDT 7:23 PM AKDT
Civil Twilight 7:29 AM AKDT 8:06 PM AKDT
Nautical Twilight 6:39 AM AKDT 8:56 PM AKDT
Astronomical Twilight 5:46 AM AKDT 9:49 PM AKDT
Moon 6:45 AM AKDT (10/3) 6:40 PM AKDT (10/3)
Length of Visible Light 12h 37m
Length of Day
11h 11m
Waning Crescent, 2% of the Moon is Illuminated
Oct 3
Waning Crescent
Oct 4
New
Oct 11
First Quarter
Oct 18
Full
Oct 26
Last Quarter

Hourly Weather History & Observations

Time (AKDT) Temp. Windchill Dew Point Humidity Pressure Visibility Wind Dir Wind Speed Gust Speed Precip Events Conditions
12:53 AM 42.1 °F 40.2 °F 39.9 °F 92% 29.79 in 10.0 mi North 3.5 mph - N/A   Overcast
1:53 AM 43.0 °F 39.5 °F 39.9 °F 89% 29.79 in 7.0 mi North 5.8 mph - N/A   Overcast
2:53 AM 43.0 °F 38.8 °F 39.9 °F 89% 29.77 in 10.0 mi North 6.9 mph - N/A   Overcast
3:53 AM 43.0 °F 41.3 °F 39.9 °F 89% 29.74 in 10.0 mi NNW 3.5 mph - N/A   Overcast
4:26 AM 42.8 °F 40.1 °F 39.2 °F 87% 29.72 in 10.0 mi North 4.6 mph - N/A   Overcast
4:53 AM 43.0 °F 40.3 °F 39.9 °F 89% 29.72 in 10.0 mi North 4.6 mph - N/A   Overcast
5:53 AM 42.1 °F 37.7 °F 39.0 °F 89% 29.69 in 10.0 mi NNW 6.9 mph - N/A   Overcast
6:10 AM 42.8 °F 37.5 °F 39.2 °F 87% 29.68 in 10.0 mi North 9.2 mph - N/A   Mostly Cloudy
6:32 AM 42.8 °F 38.0 °F 39.2 °F 87% 29.67 in 10.0 mi NNE 8.1 mph - N/A   Mostly Cloudy
6:53 AM 42.1 °F 39.2 °F 39.0 °F 89% 29.67 in 10.0 mi NNE 4.6 mph - N/A   Mostly Cloudy
7:34 AM 42.8 °F 38.0 °F 37.4 °F 81% 29.64 in 10.0 mi North 8.1 mph - N/A   Overcast
7:53 AM 42.1 °F 37.7 °F 37.9 °F 85% 29.65 in 10.0 mi NNE 6.9 mph - N/A   Overcast
8:53 AM 41.0 °F 35.2 °F 37.0 °F 86% 29.62 in 10.0 mi North 9.2 mph - N/A   Overcast
9:53 AM 42.1 °F 37.7 °F 37.0 °F 82% 29.60 in 10.0 mi North 6.9 mph - N/A   Mostly Cloudy
10:53 AM 44.1 °F 40.1 °F 37.0 °F 76% 29.57 in 10.0 mi North 6.9 mph - N/A   Mostly Cloudy
11:53 AM 46.4 °F 41.5 °F 37.4 °F 71% 29.53 in 10.0 mi North 10.4 mph - N/A   Mostly Cloudy
12:53 PM 46.9 °F - 37.9 °F 71% 29.52 in 10.0 mi North 12.7 mph - N/A   Mostly Cloudy
1:53 PM 50.0 °F - 37.0 °F 61% 29.49 in 10.0 mi NNE 11.5 mph 17.3 mph N/A   Overcast
2:53 PM 48.9 °F - 37.9 °F 66% 29.48 in 10.0 mi North 6.9 mph - N/A   Overcast
3:53 PM 50.0 °F - 37.9 °F 63% 29.47 in 10.0 mi North 8.1 mph - N/A   Overcast
4:53 PM 51.1 °F - 37.0 °F 59% 29.46 in 10.0 mi Calm Calm - N/A   Overcast
5:53 PM 51.1 °F - 37.0 °F 59% 29.46 in 10.0 mi North 4.6 mph - N/A   Overcast
6:53 PM 50.0 °F - 39.0 °F 66% 29.46 in 10.0 mi Calm Calm - N/A   Overcast
8:53 PM 48.0 °F - 39.0 °F 71% 29.47 in 10.0 mi SW 5.8 mph - N/A   Overcast
9:53 PM 46.0 °F - 37.9 °F 73% 29.47 in 10.0 mi Calm Calm - N/A   Overcast
10:53 PM 44.1 °F - 39.0 °F 82% 29.47 in 10.0 mi Calm Calm - N/A   Mostly Cloudy
11:53 PM 44.1 °F - 39.0 °F 82% 29.47 in 10.0 mi Calm Calm - N/A   Mostly Cloudy